Regional Weather Roundup
Issued by NWS Kansas City/Pleasant Hill, MO

Home | Current Version | Previous Version | Graphics & Text | Print | Product List | Glossary Off
Versions: 1 2 3 4 5 6 7 8 9 10 11 12 13 14 15 16 17 18 19 20 21 22 23 24 25 26 27 28

000
ASUS43 KEAX 171510
RWREAX

WEATHER ROUNDUP FOR EASTERN KANSAS AND NORTHWEST MISSOURI
NATIONAL WEATHER SERVICE KANSAS CITY/PLEASANT HILL MO
900 AM CST FRI NOV 17 2017

KSZ040-057-103>105-MOZ028-029-037-043-171600-
...KANSAS CITY METROPOLITAN AREA...

CITY           SKY/WX    TMP DP  RH WIND       PRES   REMARKS
K.C. INTL      CLOUDY    57  54  89 S18G25    29.71F FOG
K.C. DOWNTOWN  CLOUDY    59  52  77 S18G26    29.72F
LEES SUMMIT    CLOUDY    57  53  86 S20G28    29.74F
OLATHE - IXD   CLOUDY    57  54  89 S13       29.73F
OLATHE - OJC   CLOUDY    56  53  90 S14       29.74F
LAWRENCE       CLOUDY    59  56  89 SE13      29.70F FOG

$$

MOZ001>008-011>017-020>025-030>033-038>040-044>046-053-054-171600-
...NORTHERN AND CENTRAL MISSOURI...

CITY           SKY/WX    TMP DP  RH WIND       PRES   REMARKS
ST. JOSEPH     CLOUDY    56  53  90 S13       29.69F FOG
MOSBY          CLOUDY    57  52  82 S8        29.73F
WARRENSBURG    CLOUDY    57  50  77 S14G25    29.77F
WHITEMAN AFB   CLOUDY    57  52  82 S16       29.75F
CLINTON        CLOUDY    57  52  82 MISG      29.80F HAZE
SEDALIA        CLOUDY    57  52  83 S15       29.82F
WARSAW         NOT AVBL
CHILLICOTHE      N/A     52  45  77 SE9G17    29.78F
KIRKSVILLE     CLOUDY    45  40  82 SE14      29.84F

$$

MOZ041-047>049-056>058-063>065-088>090-097-171600-
...EASTERN AND SOUTHERN MISSOURI...

CITY           SKY/WX    TMP DP  RH WIND       PRES   REMARKS
ST. LOUIS INTL CLOUDY    39  36  89 SE14      30.03F WCI  31
SPIRIT OF STL  CLOUDY    41  36  82 SE6       30.01F FOG
COLUMBIA       CLOUDY    51  43  74 SE14G23   29.88F
JEFFERSON CITY CLOUDY    53  43  68 SE13      29.90F
ROLLA          CLOUDY    50  41  71 S15G24    29.94F
OSAGE BEACH    CLOUDY    53  46  77 S13G23    29.89F
SPRINGFIELD    CLOUDY    54  48  80 SE24G31   29.86F
BRANSON        CLOUDY    55  50  82 SE15      29.93F
JOPLIN         CLOUDY    62  59  90 S20G32    29.81F
WEST PLAINS    CLOUDY    50  42  74 S12       30.00F

$$

IAZ060-094-KSZ022-034>040-054-083-096-NEZ052-066-093-171600-
...KANSAS...SOUTHEAST NEBRASKA AND IOWA...

CITY           SKY/WX    TMP DP  RH WIND       PRES   REMARKS
TOPEKA         CLOUDY    58  58 100 S14       29.68F FOG
MANHATTAN      CLOUDY    62  57  83 S16G24    29.62F
EMPORIA        CLOUDY    56  55  97 S21       29.68F FOG
CHANUTE        CLOUDY    62  58  86 S18G29    29.75F
WICHITA        CLOUDY    61  60  97 S20       29.68F FOG
OMAHA          CLOUDY    54  47  77 SE12      29.63F
LINCOLN        CLOUDY    56  51  84 E3        29.62F
FALLS CITY     CLOUDY    57  54  89 S16G25    29.64F
LAMONI         CLOUDY    47  42  83 SE12      29.73F
DES MOINES     CLOUDY    45  38  76 SE15      29.75F

$$





USA.gov is the U.S. government's official web portal to all federal, state and local government web resources and services.